DWEW6128 Weather Reports


Display with metric or nautical units.
time (UTC)temp
F
wind
direction
speed
MPH
gust
MPH
rain 1hr
in
rain 24hr
in
rain mn
in
humidity
%
barometer
mb
20191021181057 66 57 0.0 1.0 0.00 0.00 0.00 82 1022.4
20191021180557 66 57 0.0 0.0 0.00 0.00 0.00 83 1022.4
20191021180059 67 57 0.0 0.0 0.00 0.00 0.00 82 1022.4
20191021175556 67 57 0.0 0.0 0.00 0.00 0.00 82 1022.2
20191021175057 67 57 1.0 1.0 0.00 0.00 0.00 81 1022.2
20191021174556 68 57 0.0 1.0 0.00 0.00 0.00 80 1022.2
20191021174057 68 57 0.0 1.0 0.00 0.00 0.00 80 1022.2
20191021173557 68 57 0.0 1.0 0.00 0.00 0.00 80 1022.2
20191021173057 69 57 0.0 0.0 0.00 0.00 0.00 79 1022.2
20191021172557 69 57 0.0 0.0 0.00 0.00 0.00 78 1022.2
20191021172057 69 57 0.0 0.0 0.00 0.00 0.00 78 1022.2
20191021171557 70 57 0.0 1.0 0.00 0.00 0.00 78 1022.2
20191021171056 70 57 0.0 1.0 0.00 0.00 0.00 78 1022.2
20191021170556 70 57 0.0 1.0 0.00 0.00 0.00 78 1022.2
20191021170059 70 57 0.0 1.0 0.00 0.00 0.00 77 1022.2
20191021165557 71 57 0.0 1.0 0.00 0.00 0.00 78 1022.1
20191021165057 71 57 0.0 2.0 0.00 0.00 0.00 76 1022.1
20191021164556 71 57 0.0 1.0 0.00 0.00 0.00 76 1022.1
20191021164057 71 57 0.0 1.0 0.00 0.00 0.00 75 1021.7
20191021163556 71 57 0.0 2.0 0.00 0.00 0.00 74 1021.7
20191021163058 71 57 0.0 3.0 0.00 0.00 0.00 73 1021.7
20191021162556 72 40 0.0 2.0 0.00 0.00 0.00 72 1021.7
20191021162056 72 40 1.0 2.0 0.00 0.00 0.00 71 1021.7
20191021161556 72 40 0.0 3.0 0.00 0.00 0.00 70 1021.7
20191021161056 72 43 1.0 3.0 0.00 0.00 0.00 70 1021.7
20191021160557 73 57 0.0 3.0 0.00 0.00 0.00 69 1021.7
20191021160058 73 59 1.0 3.0 0.00 0.00 0.00 69 1021.7
20191021155557 73 80 1.0 2.0 0.00 0.00 0.00 69 1021.7
20191021155056 73 54 0.0 3.0 0.00 0.00 0.00 69 1021.7
20191021154556 74 41 1.0 3.0 0.00 0.00 0.00 69 1021.7
20191021154056 74 0 1.0 3.0 0.00 0.00 0.00 69 1021.7
20191021153557 74 40 2.0 5.0 0.00 0.00 0.00 69 1021.7
20191021153058 75 306 1.0 2.0 0.00 0.00 0.00 69 1021.7
20191021152556 75 40 2.0 3.0 0.00 0.00 0.00 69 1021.7
20191021152056 75 21 2.0 6.0 0.00 0.00 0.00 69 1021.7
20191021151556 75 34 1.0 5.0 0.00 0.00 0.00 68 1021.7
20191021151057 76 54 3.0 7.0 0.00 0.00 0.00 67 1021.7
20191021150556 76 359 2.0 5.0 0.00 0.00 0.00 67 1021.7
20191021150100 76 28 2.0 3.0 0.00 0.00 0.00 67 1021.7
20191021145556 76 4 1.0 7.0 0.00 0.00 0.00 67 1021.7
20191021145056 76 26 2.0 6.0 0.00 0.00 0.00 66 1021.7
20191021144557 77 52 2.0 3.0 0.00 0.00 0.00 66 1021.7
20191021144056 77 15 3.0 5.0 0.00 0.00 0.00 65 1021.7
20191021143556 78 36 3.0 7.0 0.00 0.00 0.00 63 1021.7
20191021143056 78 341 2.0 3.0 0.00 0.00 0.00 63 1021.7
20191021142556 78 304 1.0 3.0 0.00 0.00 0.00 64 1021.7
20191021142056 78 29 2.0 3.0 0.00 0.00 0.00 64 1021.7
20191021141557 77 45 2.0 5.0 0.00 0.00 0.00 64 1021.7
20191021141057 78 13 2.0 6.0 0.00 0.00 0.00 64 1021.7
20191021140556 77 7 2.0 6.0 0.00 0.00 0.00 65 1021.7
20191021140057 77 355 2.0 5.0 0.00 0.00 0.00 64 1021.7
20191021135556 77 36 2.0 5.0 0.00 0.00 0.00 65 1021.9
20191021135057 77 45 2.0 7.0 0.00 0.00 0.00 65 1021.9
20191021134556 77 56 3.0 6.0 0.00 0.00 0.00 64 1021.9
20191021134056 77 326 2.0 5.0 0.00 0.00 0.00 65 1021.9
20191021133556 78 44 3.0 6.0 0.00 0.00 0.00 64 1021.9
20191021133057 78 3 2.0 8.0 0.00 0.00 0.00 66 1021.9
20191021132556 77 325 3.0 7.0 0.00 0.00 0.00 67 1021.9
20191021132058 77 39 2.0 8.0 0.00 0.00 0.00 67 1021.9
20191021131556 78 61 3.0 8.0 0.00 0.00 0.00 66 1021.9
20191021131056 78 28 2.0 6.0 0.00 0.00 0.00 66 1021.9
20191021130557 79 347 3.0 6.0 0.00 0.00 0.00 65 1021.9
20191021130100 79 338 1.0 6.0 0.00 0.00 0.00 64 1021.9
20191021125556 79 303 1.0 3.0 0.00 0.00 0.00 65 1022.8
20191021125056 79 43 3.0 5.0 0.00 0.00 0.00 64 1022.8
20191021124556 79 62 1.0 3.0 0.00 0.00 0.00 64 1022.8
20191021124056 79 342 1.0 6.0 0.00 0.00 0.00 64 1022.8
20191021123557 79 26 2.0 5.0 0.00 0.00 0.00 64 1022.8
20191021123058 79 297 3.0 7.0 0.00 0.00 0.00 62 1022.8
20191021122556 79 356 1.0 3.0 0.00 0.00 0.00 62 1022.8
20191021122057 79 341 1.0 3.0 0.00 0.00 0.00 62 1022.8
20191021121557 79 11 2.0 6.0 0.00 0.00 0.00 62 1022.8
20191021121056 79 346 1.0 3.0 0.00 0.00 0.00 61 1022.8
20191021120556 78 17 2.0 6.0 0.00 0.00 0.00 60 1022.8
20191021120059 78 30 1.0 6.0 0.00 0.00 0.00 60 1022.8
20191021115556 78 18 3.0 6.0 0.00 0.00 0.00 59 1022.8
20191021115056 79 356 1.0 3.0 0.00 0.00 0.00 57 1022.8
20191021114556 78 319 1.0 3.0 0.00 0.00 0.00 59 1022.8
20191021114056 77 319 1.0 3.0 0.00 0.00 0.00 60 1022.8
20191021113556 76 13 2.0 5.0 0.00 0.00 0.00 62 1022.8
20191021113056 76 63 5.0 7.0 0.00 0.00 0.00 60 1022.8
20191021112556 77 6 2.0 3.0 0.00 0.00 0.00 60 1022.8
20191021112056 78 56 2.0 3.0 0.00 0.00 0.00 60 1022.8
20191021111557 77 346 1.0 3.0 0.00 0.00 0.00 61 1022.8
20191021111056 77 5 2.0 5.0 0.00 0.00 0.00 61 1022.8
20191021110556 77 25 2.0 3.0 0.00 0.00 0.00 60 1022.8
20191021110059 78 303 2.0 7.0 0.00 0.00 0.00 58 1022.8
20191021105556 79 335 1.0 3.0 0.00 0.00 0.00 58 1023.1
20191021105057 79 354 2.0 5.0 0.00 0.00 0.00 57 1023.1
20191021104556 79 284 1.0 6.0 0.00 0.00 0.00 57 1023.1
20191021104056 79 14 1.0 3.0 0.00 0.00 0.00 56 1023.1
20191021103557 79 311 1.0 5.0 0.00 0.00 0.00 55 1023.1
20191021103056 79 3 2.0 3.0 0.00 0.00 0.00 55 1023.1
20191021102556 79 17 2.0 3.0 0.00 0.00 0.00 55 1023.1
20191021102056 79 38 1.0 2.0 0.00 0.00 0.00 53 1023.1
20191021101556 78 338 1.0 3.0 0.00 0.00 0.00 55 1023.1
20191021101056 78 23 1.0 2.0 0.00 0.00 0.00 54 1023.1
20191021100557 78 345 1.0 3.0 0.00 0.00 0.00 54 1023.1
20191021100059 78 5 2.0 3.0 0.00 0.00 0.00 53 1023.1
20191021095557 78 354 1.0 3.0 0.00 0.00 0.00 53 1023.1
20191021095056 78 358 1.0 2.0 0.00 0.00 0.00 53 1023.1
20191021094556 78 0 1.0 2.0 0.00 0.00 0.00 53 1023.1
20191021094056 78 0 1.0 2.0 0.00 0.00 0.00 53 1023.1
20191021093556 77 2 1.0 2.0 0.00 0.00 0.00 53 1023.1
20191021093058 78 21 0.0 2.0 0.00 0.00 0.00 52 1023.1
20191021092556 78 40 0.0 2.0 0.00 0.00 0.00 53 1023.1
20191021092056 77 52 1.0 2.0 0.00 0.00 0.00 52 1023.1
20191021091556 78 347 1.0 3.0 0.00 0.00 0.00 53 1023.1
20191021091056 77 347 1.0 2.0 0.00 0.00 0.00 54 1023.1
20191021090556 77 348 1.0 2.0 0.00 0.00 0.00 54 1023.1
20191021090059 77 348 0.0 3.0 0.00 0.00 0.00 55 1023.1
20191021085556 77 343 0.0 3.0 0.00 0.00 0.00 55 1022.7
20191021085056 76 19 1.0 3.0 0.00 0.00 0.00 56 1022.7
20191021084556 76 24 1.0 2.0 0.00 0.00 0.00 57 1022.7
20191021084056 76 355 1.0 3.0 0.00 0.00 0.00 58 1022.7
20191021083556 75 22 1.0 3.0 0.00 0.00 0.00 58 1022.7
20191021083056 75 26 1.0 2.0 0.00 0.00 0.00 59 1022.7
20191021082556 75 18 1.0 3.0 0.00 0.00 0.00 59 1022.7
20191021082056 75 325 0.0 1.0 0.00 0.00 0.00 59 1022.7
20191021081556 75 289 0.0 2.0 0.00 0.00 0.00 59 1022.7
20191021081056 74 288 0.0 2.0 0.00 0.00 0.00 60 1022.7
20191021080556 74 288 0.0 2.0 0.00 0.00 0.00 60 1022.7
20191021080058 73 288 0.0 2.0 0.00 0.00 0.00 62 1022.7
20191021075556 73 288 0.0 2.0 0.00 0.00 0.00 63 1022.4
20191021075056 73 284 1.0 2.0 0.00 0.00 0.00 62 1022.4
20191021074555 73 277 0.0 2.0 0.00 0.00 0.00 62 1022.4
20191021074055 73 259 0.0 1.0 0.00 0.00 0.00 65 1022.4
20191021073555 72 259 0.0 0.0 0.00 0.00 0.00 68 1022.4
20191021073056 70 259 0.0 1.0 0.00 0.00 0.00 70 1022.4
20191021072556 69 259 0.0 1.0 0.00 0.00 0.00 72 1022.4
20191021072056 68 259 0.0 2.0 0.00 0.00 0.00 74 1022.4
20191021071556 67 259 1.0 2.0 0.00 0.00 0.00 75 1022.4
20191021071056 66 259 1.0 3.0 0.00 0.00 0.00 76 1022.4
20191021070556 66 259 2.0 3.0 0.00 0.00 0.00 77 1022.4
20191021070100 65 253 1.0 3.0 0.00 0.00 0.00 79 1022.4
20191021065556 64 250 2.0 3.0 0.00 0.00 0.00 79 1021.9
20191021065056 64 242 2.0 3.0 0.00 0.00 0.00 80 1021.9
20191021064556 63 240 2.0 3.0 0.00 0.00 0.00 81 1021.9
20191021064056 63 242 3.0 5.0 0.00 0.00 0.00 82 1021.9
20191021063555 62 220 2.0 3.0 0.00 0.00 0.00 83 1021.9
20191021063056 62 199 3.0 3.0 0.00 0.00 0.00 84 1021.9
20191021062556 61 200 2.0 3.0 0.00 0.00 0.00 86 1021.9
20191021062056 60 197 2.0 3.0 0.00 0.00 0.00 87 1021.9
20191021061556 60 220 3.0 3.0 0.00 0.00 0.00 88 1021.9
20191021061056 59 216 3.0 5.0 0.00 0.00 0.00 89 1021.9
20191021060556 58 221 3.0 3.0 0.00 0.00 0.00 90 1021.9
20191021060058 58 204 3.0 3.0 0.00 0.00 0.00 90 1021.9
20191021055555 57 200 2.0 3.0 0.00 0.00 0.00 90 1021.9
20191021055056 57 209 3.0 3.0 0.00 0.00 0.00 90 1021.9
20191021054555 57 208 2.0 3.0 0.00 0.00 0.00 90 1021.7
20191021054056 57 215 2.0 3.0 0.00 0.00 0.00 90 1021.7
20191021053555 57 214 2.0 3.0 0.00 0.00 0.00 90 1021.7
20191021053056 57 212 2.0 3.0 0.00 0.00 0.00 90 1021.7
20191021052556 57 223 3.0 5.0 0.00 0.00 0.00 90 1021.7
20191021052056 56 220 3.0 3.0 0.00 0.00 0.00 90 1021.7
20191021051556 56 209 2.0 3.0 0.00 0.00 0.00 90 1021.7
20191021051055 56 191 2.0 3.0 0.00 0.00 0.00 90 1021.7
20191021050556 56 219 3.0 3.0 0.00 0.00 0.00 90 1021.7
20191021050057 56 223 3.0 3.0 0.00 0.00 0.00 90 1021.7
20191021045555 56 209 3.0 5.0 0.00 0.00 0.00 90 1021.7
20191021045055 56 195 2.0 3.0 0.00 0.00 0.00 90 1021.7
20191021044556 56 204 2.0 3.0 0.00 0.00 0.00 90 1021.7
20191021044055 56 205 5.0 5.0 0.00 0.00 0.00 90 1021.5
20191021043556 56 198 3.0 5.0 0.00 0.00 0.00 90 1021.5
20191021043056 56 199 2.0 3.0 0.00 0.00 0.00 90 1021.5
20191021042555 56 186 2.0 3.0 0.00 0.00 0.00 90 1021.5
20191021042055 56 208 3.0 5.0 0.00 0.00 0.00 90 1021.5
20191021041556 56 199 3.0 3.0 0.00 0.00 0.00 90 1021.5
20191021041055 56 187 2.0 3.0 0.00 0.00 0.00 90 1021.5
20191021040555 56 186 1.0 3.0 0.00 0.00 0.00 89 1021.5
20191021040058 57 188 1.0 3.0 0.00 0.00 0.00 89 1021.5
20191021035556 57 174 2.0 3.0 0.00 0.00 0.00 89 1021.4
20191021035056 57 165 1.0 3.0 0.00 0.00 0.00 88 1021.4
20191021034556 57 178 1.0 2.0 0.00 0.00 0.00 88 1021.4
20191021034056 58 144 1.0 2.0 0.00 0.00 0.00 88 1021.4
20191021033556 58 141 1.0 2.0 0.00 0.00 0.00 87 1021.4
20191021033056 58 140 1.0 2.0 0.00 0.00 0.00 87 1021.4
20191021032555 58 140 1.0 2.0 0.00 0.00 0.00 87 1021.4
20191021032055 58 140 2.0 2.0 0.00 0.00 0.00 87 1021.4
20191021031555 59 140 1.0 2.0 0.00 0.00 0.00 86 1021.4
20191021031056 59 140 1.0 2.0 0.00 0.00 0.00 86 1021.4
20191021030555 60 140 1.0 3.0 0.00 0.00 0.00 85 1021.4
20191021030058 60 104 1.0 2.0 0.00 0.00 0.00 86 1021.4
20191021025555 60 87 1.0 2.0 0.00 0.00 0.00 86 1021.2
20191021025055 60 74 1.0 2.0 0.00 0.00 0.00 86 1021.2
20191021024556 61 225 1.0 2.0 0.00 0.00 0.00 86 1021.2
20191021024055 61 225 1.0 2.0 0.00 0.00 0.00 86 1021.2
20191021023556 60 225 2.0 3.0 0.00 0.00 0.00 87 1021.2
20191021023056 60 225 2.0 3.0 0.00 0.00 0.00 86 1021.2
20191021022556 60 225 2.0 3.0 0.00 0.00 0.00 86 1021.2
20191021022056 60 225 3.0 3.0 0.00 0.00 0.00 86 1021.2
20191021021556 61 236 3.0 3.0 0.00 0.00 0.00 86 1021.2
20191021021055 61 244 3.0 3.0 0.00 0.00 0.00 86 1021.2
20191021020555 61 239 2.0 3.0 0.00 0.00 0.00 86 1021.2
20191021020059 61 249 3.0 3.0 0.00 0.00 0.00 86 1021.2
20191021015555 61 250 3.0 3.0 0.00 0.00 0.00 86 1021.1
20191021015056 61 245 3.0 3.0 0.00 0.00 0.00 87 1021.1
20191021014556 62 244 2.0 3.0 0.00 0.00 0.00 87 1021.1
20191021014055 62 244 2.0 3.0 0.00 0.00 0.00 87 1021.1
20191021013555 62 257 3.0 3.0 0.00 0.00 0.00 87 1021.1
20191021013056 62 267 2.0 3.0 0.00 0.00 0.00 86 1021.1
20191021012555 62 273 1.0 3.0 0.00 0.00 0.00 86 1021.1
20191021012056 62 273 1.0 3.0 0.00 0.00 0.00 86 1021.1
20191021011556 63 268 1.0 3.0 0.00 0.00 0.00 85 1021.1
20191021011055 63 263 1.0 1.0 0.00 0.00 0.00 85 1021.1
20191021010555 63 263 0.0 2.0 0.00 0.00 0.00 85 1021.1
20191021010058 63 263 1.0 3.0 0.00 0.00 0.00 85 1021.1
20191021005556 63 263 1.0 3.0 0.00 0.00 0.00 85 1020.8
20191021005055 64 263 1.0 3.0 0.00 0.00 0.00 85 1020.8
20191021004555 64 263 2.0 3.0 0.00 0.00 0.00 85 1020.8
20191021004055 64 256 1.0 2.0 0.00 0.00 0.00 84 1020.8
20191021003555 64 251 2.0 3.0 0.00 0.00 0.00 84 1020.8
20191021003058 64 228 3.0 6.0 0.00 0.00 0.00 84 1020.8
20191021002555 65 210 5.0 7.0 0.00 0.00 0.00 85 1020.8
20191021002056 65 211 5.0 7.0 0.00 0.00 0.00 85 1020.8
20191021001556 65 212 6.0 8.0 0.00 0.00 0.00 85 1020.8
20191021001056 65 209 6.0 7.0 0.00 0.00 0.00 85 1020.8
20191021000556 65 212 5.0 7.0 0.00 0.00 0.00 86 1020.8
20191021000057 65 155 5.0 7.0 0.00 0.00 0.00 86 1020.8
20191020235556 65 212 5.0 7.0 0.00 0.00 0.00 86 1020.8
20191020235056 65 197 5.0 7.0 0.00 0.00 0.00 86 1020.8
20191020234556 65 196 5.0 7.0 0.00 0.00 0.00 86 1020.8
20191020234056 65 213 5.0 7.0 0.00 0.00 0.00 86 1020.8
20191020233556 65 202 5.0 7.0 0.00 0.00 0.00 86 1020.8
20191020233057 65 201 5.0 6.0 0.00 0.00 0.00 86 1020.8
20191020232556 65 195 3.0 7.0 0.00 0.00 0.00 86 1020.8
20191020232056 65 211 5.0 7.0 0.00 0.00 0.00 86 1020.8
20191020231556 65 211 5.0 6.0 0.00 0.00 0.00 85 1020.8
20191020231056 65 213 5.0 6.0 0.00 0.00 0.00 85 1020.8
20191020230557 65 213 5.0 8.0 0.00 0.00 0.00 85 1020.8
20191020230100 65 175 6.0 8.0 0.00 0.00 0.00 85 1020.8
20191020225557 65 209 5.0 7.0 0.00 0.00 0.00 85 1020.8
20191020225057 66 210 5.0 9.0 0.00 0.00 0.00 85 1020.8
20191020224557 66 215 5.0 7.0 0.00 0.00 0.00 85 1020.8
20191020224057 66 215 5.0 8.0 0.00 0.00 0.00 84 1020.8
20191020223557 66 227 6.0 10.0 0.00 0.00 0.00 85 1020.8
20191020223057 66 226 7.0 10.0 0.00 0.00 0.00 85 1020.8
20191020222557 66 236 7.0 12.0 0.00 0.00 0.00 86 1020.8
20191020222057 66 213 7.0 12.0 0.00 0.00 0.00 86 1020.8
20191020221557 66 215 6.0 10.0 0.00 0.00 0.00 86 1020.8
20191020221102 66 227 6.0 9.0 0.00 0.00 0.00 86 1020.8
20191020220557 66 217 5.0 12.0 0.00 0.00 0.00 86 1020.8
20191020220059 66 235 7.0 12.0 0.00 0.00 0.00 87 1020.8
20191020215558 66 220 6.0 9.0 0.00 0.00 0.00 87 1020.8
20191020215058 66 217 6.0 10.0 0.00 0.00 0.00 87 1020.8
20191020214558 66 202 6.0 9.0 0.00 0.00 0.00 87 1020.8
20191020214058 66 207 6.0 7.0 0.00 0.00 0.00 87 1020.8
20191020213557 66 211 5.0 8.0 0.00 0.00 0.00 87 1020.8
20191020213058 66 215 5.0 8.0 0.00 0.00 0.00 87 1020.8
20191020212558 66 208 6.0 9.0 0.00 0.00 0.00 87 1020.8
20191020212059 66 228 6.0 7.0 0.00 0.00 0.00 88 1020.8
20191020211558 66 206 6.0 8.0 0.00 0.00 0.00 87 1020.8
20191020211058 66 215 6.0 10.0 0.00 0.00 0.00 87 1020.8
20191020210558 66 210 6.0 9.0 0.00 0.00 0.00 87 1020.8
20191020210100 66 195 6.0 10.0 0.00 0.00 0.00 87 1020.8
20191020205558 66 228 6.0 10.0 0.00 0.00 0.00 87 1020.7
20191020205059 66 212 7.0 9.0 0.00 0.00 0.00 86 1020.7
20191020204558 67 223 6.0 9.0 0.00 0.00 0.00 86 1020.7
20191020204059 67 206 7.0 13.0 0.00 0.00 0.00 86 1020.7
20191020203558 67 210 6.0 9.0 0.00 0.00 0.00 85 1020.7
20191020203059 67 202 6.0 9.0 0.00 0.00 0.00 85 1020.7
20191020202559 67 215 6.0 10.0 0.00 0.00 0.00 85 1020.7
20191020202058 67 235 7.0 10.0 0.00 0.00 0.00 85 1020.7
20191020201558 67 215 6.0 9.0 0.00 0.00 0.00 85 1020.7
20191020201100 67 226 7.0 10.0 0.00 0.00 0.00 84 1020.7
20191020200558 67 206 7.0 12.0 0.00 0.00 0.00 84 1020.7
20191020200101 67 217 6.0 12.0 0.00 0.00 0.00 84 1020.7
20191020195559 67 230 7.0 10.0 0.00 0.00 0.00 84 1020.6
20191020195059 67 238 6.0 10.0 0.00 0.00 0.00 83 1020.5
20191020194559 67 219 6.0 10.0 0.00 0.00 0.00 83 1020.5
20191020194059 67 250 6.0 10.0 0.00 0.00 0.00 83 1020.5
20191020193559 67 214 6.0 9.0 0.00 0.00 0.00 83 1020.5
20191020193059 67 220 6.0 9.0 0.00 0.00 0.00 83 1020.5
20191020192559 67 212 6.0 12.0 0.00 0.00 0.00 83 1020.5
20191020192059 67 198 6.0 12.0 0.00 0.00 0.00 83 1020.2
20191020191600 67 228 6.0 12.0 0.00 0.00 0.00 82 1020.2
20191020191100 67 204 6.0 10.0 0.00 0.00 0.00 82 1020.2
20191020190559 67 215 7.0 10.0 0.00 0.00 0.00 82 1020.2
20191020190101 68 251 6.0 9.0 0.00 0.00 0.00 81 1020.2
20191020185559 68 211 6.0 12.0 0.00 0.00 0.00 80 1020.2
20191020185100 68 205 5.0 8.0 0.00 0.00 0.00 80 1020.2
20191020184559 68 206 4.0 8.0 0.00 0.00 0.00 79 1020.2
20191020184100 68 204 6.0 8.0 0.00 0.00 0.00 78 1020.2
20191020183600 68 221 6.0 9.0 0.00 0.00 0.00 77 1020.2
20191020183100 68 208 5.0 7.0 0.00 0.00 0.00 77 1020.1
20191020182600 68 216 5.0 7.0 0.00 0.00 0.00 76 1020.1
20191020182100 68 206 6.0 7.0 0.00 0.00 0.00 76 1020.1
20191020181600 68 200 6.0 7.0 0.00 0.00 0.00 75 1020.1